Hourly Weather Roundup
Issued by NWS Central Illinois

Home | Current Version | Previous Version | Text Only | Print | Product List | Glossary On
Versions: 1 2 3 4 5 6 7 8 9 10 11 12 13 14 15 16 17 18 19 20 21 22 23 24 25 26 27 28 29 30 31 32 33 34 35 36 37 38 39 40 41 42 43 44 45 46 47 48 49 50
000
NZUS43 KILX 192310
HWRILX

Area Weather Roundup
National Weather Service Lincoln IL
500 PM CST MON FEB 19 2018

NOTE:  "FAIR" indicates few or no clouds below 12,000 feet, with
       no sigificant weather and/or obstructions to visibility.


CITY           SKY/WX    TMP DP  RH WIND       PRES   REMARKS
Bloomington    LGT RAIN  58  57  97 S25       29.85R
Champaign      LGT RAIN  59  59 100 S21       29.90S FOG
Danville       LGT RAIN  59  58  96 S17G25    29.89F
Decatur        LGT RAIN  59  59 100 S14G24    29.89R
Effingham      CLOUDY    63  59  88 SE8       29.96S
Flora          CLOUDY    68  59  73 S16G22    29.95S
Galesburg      CLOUDY    59  58  97 S20G25    29.76R
Jacksonville   CLOUDY    59  57  92 S15G23    29.82S
Lacon          RAIN      59  58  96 S16G28    29.77S
Lawrenceville  CLOUDY    67  58  72 SW8       29.98R
Litchfield     CLOUDY    60  58  92 SE14      29.87F
$$


CITY           SKY/WX    TMP DP  RH WIND       PRES   REMARKS
Lincoln        LGT RAIN  60  60  99 S15       29.86S
Macomb         CLOUDY    59  58  96 S13       29.79R
Mattoon        LGT RAIN  59  57  93 S12       29.92F
Mt Carmel AP   CLOUDY    68  58  70 S8        29.98R
Olney-Noble AP CLOUDY    67  59  75 S12       29.96F
Paris AP       LGT RAIN  59  58  96 S15       29.96S
Peoria         CLOUDY    59  57  93 S22G31    29.79S
Pontiac        LGT RAIN  58  58  99 S20G25    29.85R
Rantoul        DRIZZLE   61  60  96 S20G26    29.89R
Robinson       CLOUDY    65  58  77 SW8       29.98R
Springfield    LGT RAIN  61  60  97 S15       29.85R FOG
Taylorville    CLOUDY    60  58  93 S16       29.88S
$$

...REGIONAL REPORTS...


CITY           SKY/WX    TMP DP  RH WIND       PRES   REMARKS
Chicago O`Hare CLOUDY    58  54  86 SW20G26   29.79R
Kankakee       LGT RAIN  57  56  97 S17G26    29.86F
Moline         CLOUDY    62  57  83 S17G28    29.69R
Mount Sterling CLOUDY    59  58  96 S15G21    29.78R
Mount Vernon   MOCLDY    67  59  75 S20       29.96R
Pittsfield     CLOUDY    61  59  95 S13       29.80S
Quincy         CLOUDY    60  59  96 S14G22    29.76S
Rockford       LGT RAIN  45  45 100 S8        29.76S VSB 1/4
$$


CITY           SKY/WX    TMP DP  RH WIND       PRES   REMARKS
Burlington     CLOUDY    60  57  89 S18       29.73R
Cedar Rapids   CLOUDY    47  47 100 W8        29.67S FOG
Des Moines     CLOUDY    32  30  92 NW12      29.77R FOG     WCI  23
Kirksville     CLOUDY    52  52 100 W7        29.74R FOG
Ottumwa        LGT RAIN  40  39  97 W8        29.74R FOG     WCI  34
St Louis       CLOUDY    63  59  87 SE8       29.86S
$$


CITY           SKY/WX    TMP DP  RH WIND       PRES   REMARKS
Terre Haute    CLOUDY    61  58  90 S5        29.98R
Evansville     FAIR      71  55  56 S13G24    30.01R
Indianapolis   CLOUDY    61  57  87 W6        30.00R
Lafayette      RAIN      60  58  92 S14G22    29.93F FOG
Madison        LGT RAIN  36  36 100 E7        29.78S FOG     WCI  30
Milwaukee      DRZL/FOG  37  36  96 N10       29.81R VSB 1/2 WCI  30
$$





USA.gov is the U.S. government's official web portal to all federal, state and local government web resources and services.